Location: Unspecified
(41.1637°N, 24.2901°E)
Time: 14:06:55
(UTC+01:00)

ISS - Pass Details

Date: 11 December 2025
Orbit: 416 x 421 km, 51.6° (Epoch: 07 December)

Event Time Altitude Azimuth Distance (km) Brightness Sun altitude
Rises 05:36:00 0° 195° (SSW) 2,350 0.1 -11.4°
Reaches altitude 10° 05:38:35 10° 174° (S) 1,492 -0.6 -10.9°
Maximum altitude 05:40:49 17° 132° (SE) 1,148 -0.4 -10.5°
Drops below altitude 10° 05:43:05 10° 89° (E) 1,500 0.3 -10.1°
Sets 05:45:41 0° 69° (ENE) 2,368 0.8 -9.7°
